Weather in Birmingham

United States     33°31′26″N   86°48′17″W
temp.,
°C
wind,
m/s
gust,
m/s
humid.,
%
clouds,
%
prec.,
mm/h
press.,
hPa
HPBL,
m
16 may, sun
sun1601:00+15se126788 0.0 102246
04:00+14sse2575100 0.0 1022130
07:00+15s1671100 0.0 1024177
10:00+21s35484 0.0 1025781
13:00+26s33365 0.0 10231927
16:00+26s343544 0.0 10201993
19:00+21s2658100 0.0 1021188
22:00+18sse235998 0.0 102157
17 may, mon
mon1701:00+16se277068 0.0 1020163
04:00+15se2373100 0.0 102084
07:00+16se2868100 0.0 1021257
10:00+21sse475696 0.0 1022621
13:00+26s464394 0.0 10201803
16:00+26s4646100 0.0 10192149
19:00+22se3959100 0.0 1019536
22:00+21se31155100 0.0 1019508
18 may, tue
tue1801:00+19sse3116461 0.0 1020399
04:00+18se31167100 0.0 1019483
07:00+19se4127658 0.0 1021648
10:00+20sse31076100 0.0 1022693
13:00+26sse585140 0.0 10211648
16:00+24sse4759100 0.0 10201016
19:00+23se3966100 0.1 1020472
22:00+21se2976100 0.0 1021261
19 may, wed
wed1901:00+19se313755 0.0 1020562
04:00+18ese4147991 0.0 1021627
07:00+18se4137943 0.0 1023571
10:00+24se58565 0.0 10231051
13:00+28se574137 0.0 10222269
16:00+29se563550 0.0 10202587
19:00+24ese4105525 0.0 1021645
22:00+22ese3106186 0.0 1022319
20 may, thu
thu2001:00+21ese413645 0.0 1022593
04:00+19ese4137179 0.0 1022621
07:00+18ese4127910 0.0 1025488
10:00+24se47598 0.0 10261249
13:00+28se464022 0.0 10242342
16:00+28e674474 0.0 10231586
19:00+24ese58595 0.0 1024943
22:00+21ese311755 0.0 1025466